Location: Abraham Lincoln Continuation High School
(33.9711°N, 117.3662°W)
Time: 04:34:08
(UTC+00:00)

Cosmos 2322 Rocket - Pass Details

Date: 21 September 2020
Orbit: 831 x 852 km, 71.0° (Epoch: 25 October)

Event Time Altitude Azimuth Distance (km) Brightness Sun altitude
Exits shadow 10:37:02 18° 117° (ESE) 1,936 4.3 -36.6°
Maximum altitude 10:38:18 20° 100° (E) 1,870 4.4 -36.3°
Drops below altitude 10° 10:42:15 10° 55° (NE) 2,471 5.4 -35.6°
Sets 10:45:20 0° 39° (NE) 3,414 6.2 -35.1°
